Wind_Speed
16 15 14 13 11 8 5 4 8 12 12 12 12 12 11 9 9 9 9 9 7 8 8 9 10 10 11 11 11 11 12 12 12 12 12 12 11 11 11 11 11 11 10 10 10 10 10 10 10
18 17 16 15 13 9 6 7 12 16 15 14 14 13 12 11 11 11 10 10 9 10 10 10 11 11 12 12 12 12 12 13 13 13 13 13 13 12 12 12 12 11 11 11 11 11 11 11 11
20 19 18 16 13 10 9 12 15 17 18 16 15 14 14 13 13 12 12 11 11 11 11 12 12 12 12 13 13 13 14 14 14 14 14 13 13 13 13 13 13 13 13 13 13 13 12 12 12
21 21 19 17 12 11 12 15 17 19 19 18 16 16 15 14 14 14 13 13 12 12 12 12 13 13 13 14 14 14 15 15 15 15 15 14 14 14 14 14 14 14 14 14 14 13 13 13 13
23 21 19 17 14 12 14 18 18 19 19 19 18 18 17 16 16 15 14 14 13 13 13 13 14 14 14 14 15 15 15 15 15 15 15 15 15 15 15 14 14 14 15 15 15 14 14 14 14
22 21 19 17 14 15 18 20 21 20 19 19 19 19 18 18 17 16 15 15 15 15 15 15 15 15 15 15 16 16 16 17 16 16 16 16 16 16 16 15 15 15 15 16 15 15 15 15 15
22 21 19 16 14 19 20 22 23 22 21 20 20 20 19 19 18 17 17 17 17 16 16 16 16 16 16 16 17 17 18 18 17 17 17 17 17 17 17 16 17 17 16 16 16 17 17 17 17
23 22 20 17 17 21 23 25 24 23 23 21 21 21 20 19 19 19 19 18 18 17 17 16 17 17 17 17 18 18 18 18 18 18 17 18 18 18 18 18 18 18 18 18 18 18 18 18 19
23 22 19 16 17 21 23 24 24 23 23 22 21 21 20 20 20 20 19 19 18 18 18 17 17 17 17 17 18 18 19 19 18 19 19 19 19 20 20 19 19 19 19 19 19 19 20 20 20
22 19 17 17 19 22 24 24 23 23 24 23 23 21 22 20 20 20 20 20 18 18 18 18 18 18 17 18 19 19 20 20 20 20 20 20 21 21 21 21 21 21 21 21 21 21 21 21 21
22 19 19 21 23 25 25 24 23 24 25 24 22 21 20 19 20 20 19 19 19 19 19 19 18 18 18 19 20 21 22 22 21 21 21 21 22 22 22 22 23 23 23 23 23 23 22 22 22
20 21 21 23 24 26 25 25 23 24 25 25 23 22 20 21 20 20 20 19 19 19 20 19 19 19 20 20 21 22 23 23 22 22 22 23 23 23 24 24 24 24 24 24 25 24 24 24 24
19 21 23 23 24 25 26 25 24 24 24 23 22 20 19 19 20 21 20 19 19 21 21 21 20 20 21 21 22 22 23 23 23 23 24 25 25 25 25 26 26 26 26 26 26 26 25 26 25
20 20 21 22 22 23 25 24 25 23 24 24 22 21 21 20 20 20 20 21 21 21 21 21 20 20 21 22 23 23 23 24 25 26 26 27 27 27 27 27 28 28 28 28 28 27 26 26 26
17 17 18 20 21 22 22 24 22 22 23 23 22 22 23 22 20 20 20 21 21 20 20 20 20 21 22 23 24 24 25 26 26 27 28 28 29 29 29 29 29 29 30 29 29 29 28 27 26
14 14 15 17 19 20 21 21 19 20 23 23 22 22 21 20 20 21 20 20 21 21 20 20 21 22 24 24 25 26 26 27 28 29 29 31 31 30 31 30 30 30 30 30 30 30 29 28 28
11 12 14 15 17 17 19 19 19 20 22 23 22 21 22 22 22 22 22 21 21 21 21 21 22 24 25 26 26 27 27 29 30 30 31 31 31 31 31 31 30 31 31 31 31 31 31 30 30
11 12 13 13 15 18 18 19 21 20 22 23 22 23 24 23 23 23 23 22 22 22 22 23 24 25 26 27 28 28 29 30 31 31 31 31 32 32 31 31 31 31 31 31 31 31 31 31 30
13 14 15 14 15 16 17 18 20 21 22 21 21 23 25 24 23 23 23 23 23 23 23 24 26 26 27 28 28 29 30 31 31 32 32 32 32 32 32 32 31 31 31 31 31 30 31 31 31
13 15 13 12 15 17 18 18 19 21 20 21 21 21 22 23 21 20 21 22 22 23 24 26 27 27 28 29 30 30 30 31 32 32 32 31 31 31 32 31 31 31 30 30 30 30 31 31 31
13 13 14 14 16 16 15 17 17 19 21 21 19 20 19 19 20 21 22 22 23 24 25 26 27 27 29 30 29 30 31 31 31 31 30 30 31 30 30 30 30 30 30 30 30 29 30 30 30
11 14 15 14 14 13 13 15 16 19 21 20 19 20 20 19 19 20 21 22 23 24 25 26 27 28 28 28 28 29 31 31 30 30 30 30 29 29 29 29 30 31 31 30 30 28 28 28 28
11 12 13 13 13 13 13 16 17 20 19 19 21 21 21 20 19 20 21 22 23 24 25 26 27 27 27 27 28 29 30 30 29 29 29 29 29 29 29 29 30 30 30 29 29 28 28 28 28
10 11 12 11 12 16 15 16 17 19 18 19 22 23 23 20 21 21 21 22 23 24 25 26 26 26 26 27 27 28 28 28 28 29 29 30 30 30 30 30 30 29 28 28 28 27 27 27 27
9 10 12 13 15 15 14 16 17 18 20 19 20 21 21 19 20 21 21 22 23 24 25 25 26 26 26 27 27 27 27 27 28 30 29 29 29 29 28 28 28 28 27 27 27 26 26 26 26
11 12 12 14 16 16 15 17 18 19 19 19 20 21 22 22 20 21 22 23 24 25 25 25 25 26 26 26 26 26 26 27 27 28 29 29 28 28 27 27 26 26 26 25 24 24 24 25 25
13 13 14 17 16 15 15 17 17 18 19 20 21 22 23 23 22 22 22 23 24 24 24 24 25 25 25 25 26 26 26 26 27 28 29 28 27 27 25 24 24 24 24 24 24 24 24 24 24
13 15 15 17 16 17 16 15 16 17 18 20 21 23 23 23 22 21 21 22 22 22 22 23 23 24 25 24 25 25 25 25 25 26 27 27 26 25 24 23 23 22 22 22 22 22 22 22 22
13 15 16 18 17 18 19 18 17 18 20 22 21 22 21 22 23 22 22 22 21 21 22 23 24 24 24 23 23 22 23 23 24 25 26 26 26 24 23 22 21 21 21 22 21 21 21 21 21
14 15 18 19 18 19 21 21 19 21 21 21 19 19 20 22 22 21 21 22 22 21 22 22 23 23 22 22 21 20 22 22 23 25 25 25 24 23 22 21 21 21 21 20 20 19 20 20 19
Wind_Direction
225 224 222 220 212 202 193 203 238 253 249 244 246 253 261 274 283 282 284 286 287 285 285 283 284 285 285 287 289 291 291 291 291 292 290 289 288 288 288 288 289 289 288 287 287 287 285 284 284
224 224 223 221 216 204 211 229 236 249 247 246 248 252 257 266 273 281 283 286 285 284 285 285 284 286 287 287 288 288 290 290 291 290 290 290 290 289 289 288 287 286 286 286 286 286 285 284 283
222 223 223 221 216 209 219 233 240 251 251 250 250 254 258 265 272 277 281 284 283 281 281 283 284 286 287 287 287 287 288 290 291 290 290 291 292 291 291 290 287 285 285 285 285 285 284 284 282
221 221 221 221 211 218 229 232 238 245 250 252 252 254 258 266 273 276 280 282 281 278 277 282 285 287 288 287 287 287 288 289 290 291 291 291 290 290 291 291 288 286 284 283 283 282 283 282 281
221 220 220 217 212 222 234 241 237 244 249 251 252 255 258 264 270 276 278 280 282 282 278 281 286 289 289 289 289 290 292 291 294 293 291 290 291 291 291 291 290 288 286 283 281 280 281 280 279
220 219 219 215 212 230 237 241 247 244 249 253 255 258 260 262 268 273 277 279 284 286 284 285 287 288 289 290 290 290 292 292 294 292 289 288 290 292 292 291 290 289 286 283 281 280 280 279 277
218 217 218 216 218 235 239 241 248 251 250 253 256 260 262 264 268 272 277 279 283 287 285 286 286 288 289 289 288 289 291 293 293 291 288 288 288 290 289 290 291 289 287 283 281 280 280 280 277
217 217 216 213 222 234 239 243 246 246 247 254 256 259 262 267 270 273 277 281 284 285 286 287 287 288 287 287 287 287 289 292 292 291 290 290 290 289 289 289 289 288 286 283 281 281 281 280 279
215 218 219 216 226 236 239 241 244 247 248 251 254 260 264 268 271 276 278 283 285 282 285 290 291 290 290 291 291 290 290 290 291 292 291 291 291 290 290 289 288 288 285 282 281 281 280 279 279
212 216 221 219 226 236 240 242 245 245 248 251 255 259 264 266 270 276 281 286 288 289 291 293 293 293 294 295 294 292 291 291 292 292 294 294 293 292 290 289 288 288 287 285 282 281 280 279 278
210 215 217 223 225 230 232 239 243 243 246 248 253 263 264 269 275 279 283 288 289 289 293 294 294 293 294 297 298 296 294 294 294 293 293 294 294 294 293 292 289 289 289 286 283 282 280 279 279
213 217 221 225 228 233 234 238 240 240 247 251 256 261 262 271 276 280 284 288 291 292 295 296 296 294 297 299 300 299 297 296 295 294 295 296 296 296 295 294 292 291 290 288 286 283 281 279 278
216 221 226 229 233 236 239 240 244 247 248 254 257 261 268 270 275 280 284 288 290 294 295 295 293 294 298 301 303 302 299 297 297 296 296 295 295 295 294 292 292 292 290 290 287 286 283 280 278
222 228 231 232 235 238 241 245 248 251 253 255 259 266 269 273 274 278 284 288 291 293 294 294 292 296 300 302 304 304 301 299 299 299 298 296 296 295 295 294 292 292 291 289 287 286 282 279 280
226 232 236 236 240 244 246 246 252 254 256 258 262 265 269 270 275 278 281 287 292 293 293 295 294 298 300 301 301 301 303 302 301 301 300 299 297 296 295 293 292 292 291 289 287 285 281 279 279
225 230 239 243 246 250 250 251 252 255 259 261 261 262 270 273 277 281 282 288 291 293 294 295 295 296 298 299 300 301 300 301 301 301 300 300 297 294 294 293 291 290 291 290 287 284 282 279 278
229 239 243 246 252 255 254 255 254 253 257 261 261 265 271 271 273 278 284 288 289 290 292 293 294 295 296 296 298 298 298 298 298 299 299 298 297 296 295 294 292 290 289 291 289 286 282 280 278
229 237 241 241 251 257 262 259 256 253 255 260 264 266 268 269 273 275 279 284 287 289 291 292 293 295 295 295 295 296 297 297 297 297 297 297 296 295 294 293 292 290 289 290 289 286 283 280 278
222 228 229 232 246 251 258 258 259 263 264 264 265 267 269 272 271 272 278 283 287 288 289 291 293 294 295 296 296 296 297 298 298 298 298 297 297 295 292 291 291 290 290 290 289 286 284 281 278
225 237 235 233 246 248 252 257 261 264 265 266 266 267 266 268 274 275 280 283 285 287 289 291 294 295 295 295 296 297 297 298 299 298 298 298 299 297 293 291 290 290 290 290 288 287 285 282 279
231 237 236 237 237 240 253 260 265 269 264 266 273 272 274 272 276 278 280 282 284 287 290 292 294 295 296 298 298 299 298 298 298 298 299 300 301 300 297 294 294 291 290 289 287 287 286 283 279
241 237 237 241 251 250 254 266 273 276 271 270 274 274 275 274 278 281 284 284 287 289 291 292 295 297 297 297 299 300 300 299 300 301 301 301 301 300 298 296 296 295 292 290 288 286 285 283 281
242 234 233 242 250 250 251 261 266 270 270 273 273 275 276 279 282 283 285 285 288 291 292 293 294 297 298 298 299 301 302 302 303 304 303 303 303 301 301 298 297 296 293 289 288 286 284 283 282
240 241 242 246 252 254 254 260 268 275 278 278 280 280 279 280 284 284 286 287 288 291 293 295 297 298 299 300 300 302 303 304 304 305 305 304 303 302 302 301 299 297 292 288 287 285 284 283 281
243 248 256 255 251 257 265 266 271 276 276 278 283 286 287 288 290 287 287 289 290 292 296 299 300 300 300 301 302 303 304 305 305 307 309 307 306 304 303 303 302 298 294 290 288 286 285 281 279
247 244 249 260 262 260 256 261 270 277 281 281 287 290 291 294 295 292 292 293 295 296 298 299 301 301 301 302 302 303 306 307 309 309 310 311 310 308 306 304 303 300 297 294 292 290 286 283 281
249 247 250 257 263 268 266 265 273 274 281 283 283 286 290 292 293 293 294 296 297 297 299 300 301 301 301 301 304 305 306 307 309 311 311 312 313 313 309 306 304 303 300 296 293 291 288 285 283
248 255 255 258 266 274 272 267 271 275 278 282 283 284 286 288 292 295 296 296 297 299 299 301 301 304 305 303 305 307 307 308 311 314 314 314 315 315 312 312 309 306 304 301 297 293 290 290 287
252 255 258 263 264 269 274 268 265 271 276 281 284 287 289 290 290 293 296 297 298 300 301 303 304 306 304 305 307 308 309 311 313 314 316 315 315 314 314 314 312 311 309 305 300 299 296 294 290
256 259 256 258 263 264 270 277 276 277 284 286 285 286 289 290 290 291 295 296 298 299 300 302 306 309 308 307 306 308 311 313 315 315 316 317 316 317 317 314 313 312 311 309 306 304 301 296 293
Height
5896 5898 5900 5902 5905 5907 5908 5910 5910 5909 5909 5909 5908 5908 5907 5907 5908 5910 5907 5905 5906 5905 5904 5904 5903 5903 5902 5901 5901 5900 5899 5898 5897 5896 5895 5895 5894 5893 5892 5891 5890 5889 5889 5888 5887 5887 5886 5886 5885
5894 5896 5898 5900 5903 5905 5908 5909 5908 5907 5907 5907 5907 5906 5906 5906 5906 5906 5905 5904 5904 5904 5903 5903 5902 5901 5900 5900 5899 5898 5897 5896 5895 5894 5893 5893 5892 5891 5890 5889 5888 5887 5887 5886 5885 5885 5884 5884 5883
5891 5893 5896 5899 5901 5903 5907 5907 5906 5905 5905 5905 5905 5905 5905 5905 5904 5904 5903 5903 5903 5902 5902 5901 5900 5899 5899 5898 5897 5896 5895 5894 5893 5892 5891 5890 5889 5888 5887 5887 5886 5885 5884 5884 5883 5883 5882 5882 5881
5888 5891 5894 5898 5900 5902 5904 5903 5901 5902 5903 5903 5903 5903 5903 5903 5903 5902 5902 5901 5901 5900 5900 5899 5898 5897 5896 5896 5895 5894 5893 5892 5891 5890 5889 5888 5887 5886 5885 5884 5883 5883 5882 5881 5881 5880 5880 5879 5879
5884 5888 5892 5895 5898 5900 5901 5899 5897 5900 5900 5901 5901 5900 5901 5901 5900 5900 5900 5899 5899 5898 5897 5897 5896 5895 5894 5893 5893 5891 5890 5889 5888 5887 5886 5885 5884 5883 5882 5881 5881 5880 5879 5879 5878 5877 5877 5876 5876
5882 5885 5889 5892 5896 5898 5898 5897 5896 5897 5897 5898 5898 5898 5898 5898 5898 5898 5897 5897 5897 5896 5895 5894 5893 5893 5892 5891 5890 5889 5888 5887 5885 5884 5883 5882 5881 5880 5879 5879 5878 5877 5876 5876 5875 5874 5874 5873 5873
5879 5882 5885 5890 5894 5896 5896 5895 5895 5895 5895 5894 5894 5895 5894 5895 5895 5895 5894 5894 5894 5893 5892 5891 5891 5890 5889 5888 5887 5886 5885 5883 5882 5881 5880 5879 5878 5877 5876 5875 5874 5874 5873 5872 5871 5871 5870 5870 5869
5874 5878 5882 5886 5891 5892 5892 5891 5892 5892 5892 5891 5891 5891 5891 5892 5892 5891 5891 5891 5891 5890 5889 5889 5887 5886 5885 5884 5883 5882 5881 5880 5879 5878 5877 5876 5875 5874 5873 5872 5871 5870 5869 5868 5868 5867 5867 5866 5866
5871 5876 5879 5884 5887 5887 5887 5886 5888 5889 5888 5888 5888 5888 5888 5888 5889 5889 5888 5888 5888 5886 5886 5885 5884 5883 5882 5881 5880 5879 5878 5877 5876 5875 5874 5872 5871 5870 5869 5868 5867 5866 5865 5864 5864 5863 5863 5862 5861
5868 5872 5877 5880 5882 5883 5883 5883 5884 5885 5884 5884 5883 5884 5884 5885 5886 5886 5885 5885 5885 5883 5883 5882 5881 5880 5879 5878 5877 5876 5875 5874 5873 5872 5870 5869 5868 5867 5865 5864 5863 5861 5861 5860 5859 5859 5858 5857 5857
5865 5869 5872 5875 5877 5877 5877 5878 5879 5881 5881 5881 5880 5880 5881 5882 5883 5883 5882 5882 5882 5881 5880 5879 5878 5877 5876 5875 5874 5873 5872 5870 5869 5868 5866 5865 5863 5862 5861 5859 5858 5857 5856 5855 5854 5853 5853 5852 5852
5862 5865 5867 5869 5871 5872 5873 5875 5875 5876 5877 5877 5878 5877 5878 5879 5880 5880 5879 5879 5878 5877 5877 5876 5875 5874 5873 5872 5870 5869 5868 5866 5865 5863 5862 5860 5859 5857 5856 5855 5853 5852 5851 5849 5848 5847 5847 5846 5846
5859 5861 5863 5865 5867 5869 5870 5871 5872 5872 5874 5874 5874 5872 5872 5874 5876 5876 5875 5875 5875 5874 5873 5872 5872 5871 5869 5868 5867 5865 5863 5862 5861 5859 5857 5856 5854 5853 5851 5849 5848 5847 5845 5843 5842 5841 5841 5840 5840
5856 5858 5860 5862 5864 5865 5867 5868 5868 5868 5870 5871 5871 5871 5870 5872 5873 5873 5872 5872 5871 5871 5870 5869 5868 5867 5866 5864 5863 5861 5859 5858 5856 5854 5852 5851 5849 5847 5845 5843 5842 5840 5839 5838 5836 5835 5834 5834 5833
5853 5856 5857 5858 5861 5862 5864 5865 5865 5866 5866 5867 5868 5869 5868 5868 5868 5868 5868 5868 5868 5867 5866 5865 5864 5863 5862 5861 5859 5857 5855 5853 5852 5850 5847 5845 5843 5841 5839 5837 5835 5834 5832 5831 5830 5828 5827 5827 5826
5850 5853 5855 5857 5858 5860 5863 5863 5863 5863 5863 5864 5864 5865 5865 5864 5864 5865 5864 5864 5864 5863 5862 5862 5861 5860 5858 5857 5855 5853 5851 5849 5847 5844 5842 5840 5837 5835 5833 5831 5828 5827 5825 5824 5822 5821 5820 5820 5819
5849 5851 5853 5855 5855 5856 5858 5859 5860 5859 5860 5861 5861 5861 5862 5861 5861 5861 5861 5861 5861 5860 5859 5858 5857 5855 5854 5852 5850 5848 5846 5844 5842 5839 5837 5834 5832 5829 5826 5824 5822 5820 5818 5816 5815 5813 5813 5812 5812
5848 5851 5852 5854 5855 5854 5855 5855 5856 5855 5856 5857 5857 5857 5857 5857 5858 5858 5858 5857 5857 5856 5855 5854 5852 5851 5849 5847 5845 5843 5841 5839 5836 5833 5830 5828 5825 5822 5819 5817 5815 5812 5810 5809 5807 5806 5805 5804 5804
5846 5848 5849 5851 5852 5853 5853 5853 5852 5851 5852 5852 5852 5853 5852 5852 5853 5853 5853 5853 5852 5851 5850 5849 5848 5846 5844 5842 5840 5838 5835 5833 5830 5827 5824 5821 5817 5815 5812 5810 5808 5805 5803 5801 5799 5798 5797 5796 5795
5843 5845 5846 5848 5850 5850 5850 5849 5849 5849 5849 5848 5848 5849 5848 5848 5849 5848 5849 5849 5848 5847 5846 5845 5843 5841 5839 5836 5834 5832 5829 5827 5824 5820 5817 5814 5811 5808 5805 5803 5800 5798 5795 5793 5792 5790 5789 5788 5787
5842 5843 5844 5846 5846 5847 5848 5846 5846 5846 5845 5844 5844 5844 5843 5844 5844 5844 5844 5844 5843 5842 5841 5840 5838 5836 5833 5831 5828 5825 5823 5820 5817 5814 5811 5808 5804 5800 5797 5795 5793 5790 5788 5786 5784 5782 5781 5779 5778
5839 5841 5842 5843 5843 5844 5845 5845 5844 5842 5842 5841 5841 5841 5840 5840 5840 5839 5839 5839 5839 5838 5836 5834 5833 5830 5828 5825 5822 5819 5816 5814 5811 5808 5804 5801 5797 5794 5790 5788 5785 5783 5780 5778 5776 5775 5773 5772 5771
5837 5837 5839 5840 5841 5841 5842 5843 5843 5840 5839 5838 5838 5838 5837 5836 5836 5835 5836 5835 5834 5833 5831 5829 5827 5825 5822 5819 5817 5814 5810 5807 5804 5801 5797 5794 5790 5787 5784 5781 5778 5775 5773 5770 5768 5767 5765 5764 5763
5834 5836 5836 5837 5838 5838 5839 5839 5838 5837 5835 5835 5835 5834 5832 5832 5832 5831 5831 5830 5829 5828 5826 5823 5821 5819 5816 5814 5811 5808 5805 5801 5798 5795 5791 5787 5784 5781 5777 5774 5770 5767 5765 5763 5761 5759 5758 5757 5756
5833 5834 5835 5835 5835 5836 5836 5836 5835 5833 5832 5831 5831 5829 5827 5827 5827 5828 5827 5825 5824 5823 5821 5818 5816 5813 5811 5808 5805 5802 5799 5796 5793 5789 5785 5781 5778 5774 5771 5767 5764 5761 5758 5756 5754 5752 5750 5749 5749
5831 5832 5833 5833 5832 5832 5833 5832 5832 5830 5828 5828 5828 5826 5825 5824 5823 5823 5822 5821 5819 5817 5815 5813 5811 5808 5805 5802 5799 5796 5793 5790 5787 5784 5780 5776 5772 5768 5765 5761 5758 5754 5752 5749 5747 5745 5744 5742 5742
5829 5829 5830 5830 5828 5827 5828 5829 5828 5826 5825 5824 5824 5824 5822 5821 5820 5818 5817 5816 5814 5812 5810 5808 5805 5803 5800 5797 5794 5791 5788 5785 5782 5778 5774 5771 5767 5763 5759 5755 5752 5749 5746 5743 5741 5739 5737 5736 5735
5827 5827 5826 5825 5824 5824 5824 5824 5824 5824 5822 5822 5821 5820 5818 5817 5815 5814 5813 5811 5809 5807 5805 5803 5800 5797 5794 5791 5789 5786 5782 5780 5776 5773 5769 5765 5761 5758 5754 5750 5747 5744 5741 5738 5735 5733 5732 5730 5729
5824 5825 5823 5822 5822 5822 5820 5822 5820 5819 5818 5817 5817 5816 5814 5813 5812 5810 5809 5807 5805 5803 5801 5798 5796 5792 5789 5786 5783 5781 5778 5775 5772 5769 5765 5761 5757 5753 5749 5746 5742 5739 5736 5733 5731 5728 5726 5725 5723
5820 5820 5820 5820 5819 5817 5816 5818 5816 5815 5814 5813 5812 5810 5810 5809 5808 5806 5804 5802 5800 5798 5796 5794 5791 5788 5785 5782 5779 5777 5774 5771 5768 5764 5761 5757 5753 5749 5745 5742 5738 5735 5732 5729 5726 5723 5721 5719 5717